Terug naar catalogus

HULIANWANG DIGUI-18

ActiefCommunicatieLEO
NORAD 62978·PAYLOAD·🇨🇳 China

Gelanceerd Feb 11, 2025 vanaf Wenchang Space Launch Site

Loading…

Volgende Passages (komende 24 uur)

TLE

VersSource: Space-Track

Epoch: Sep 14, 2026, 20:47 UTC

1 62978U 25030H   26257.86599208 -.00000094  00000-0  63859-4 0  9990
2 62978  50.0058 273.9155 0000520  27.6543 332.4356 13.29325705 77791

Volg HULIANWANG DIGUI-18 in realtime met AllMySat

Download on the App Store